TimeMDT,TemperatureF,Dew PointF,Humidity,Sea Level PressureIn,VisibilityMPH,Wind Direction,Wind SpeedMPH,Gust SpeedMPH,PrecipitationIn,Events,Conditions,WindDirDegrees,DateUTC
12:53 AM,60.1,36.0,41,29.88,10.0,SW,6.9,-,N/A,,Clear,220,2013-07-11 06:53:00
1:53 AM,66.9,39.9,37,29.83,10.0,SE,9.2,-,N/A,,Clear,140,2013-07-11 07:53:00
2:53 AM,63.0,41.0,45,29.84,10.0,South,9.2,-,N/A,,Clear,180,2013-07-11 08:53:00
3:53 AM,59.0,39.0,48,29.85,10.0,SSW,5.8,-,N/A,,Clear,210,2013-07-11 09:53:00
4:53 AM,57.9,37.9,47,29.86,10.0,SSW,6.9,-,N/A,,Clear,200,2013-07-11 10:53:00
5:53 AM,55.0,39.0,55,29.88,10.0,South,6.9,-,N/A,,Clear,190,2013-07-11 11:53:00
6:53 AM,55.9,39.9,55,29.91,10.0,Variable,3.5,-,N/A,,Clear,0,2013-07-11 12:53:00
7:53 AM,63.0,42.1,46,29.90,10.0,SSE,4.6,-,N/A,,Clear,160,2013-07-11 13:53:00
8:53 AM,69.1,44.1,40,29.91,10.0,NE,3.5,-,N/A,,Clear,40,2013-07-11 14:53:00
9:53 AM,75.0,43.0,32,29.87,10.0,North,5.8,-,N/A,,Clear,360,2013-07-11 15:53:00
10:53 AM,80.1,37.0,21,29.84,10.0,Variable,6.9,-,N/A,,Clear,0,2013-07-11 16:53:00
11:53 AM,84.0,35.1,17,29.82,10.0,North,8.1,-,N/A,,Clear,350,2013-07-11 17:53:00
12:53 PM,84.9,36.0,17,29.78,10.0,Variable,3.5,-,N/A,,Clear,0,2013-07-11 18:53:00
1:53 PM,86.0,36.0,17,29.73,10.0,West,10.4,25.3,N/A,,Partly Cloudy,270,2013-07-11 19:53:00
2:53 PM,86.0,37.0,18,29.73,10.0,Variable,6.9,20.7,N/A,,Clear,0,2013-07-11 20:53:00
3:53 PM,87.1,37.0,17,29.71,10.0,NE,4.6,-,N/A,,Clear,50,2013-07-11 21:53:00
4:53 PM,82.9,37.9,20,29.71,10.0,West,11.5,21.9,N/A,,Partly Cloudy,260,2013-07-11 22:53:00
5:53 PM,77.0,43.0,30,29.78,10.0,ENE,11.5,17.3,N/A,,Mostly Cloudy,60,2013-07-11 23:53:00
6:19 PM,73.4,48.2,41,30.19,10.0,SW,8.1,-,0.00,Rain-Thunderstorm,Light Thunderstorms and Rain,220,2013-07-12 00:19:00
6:53 PM,66.9,53.1,61,29.88,10.0,SSE,16.1,21.9,0.00,Rain,Light Rain,150,2013-07-12 00:53:00
7:53 PM,64.0,53.1,67,29.89,10.0,SE,8.1,-,0.00,,Scattered Clouds,140,2013-07-12 01:53:00
8:53 PM,61.0,54.0,78,29.87,10.0,WSW,3.5,-,N/A,,Partly Cloudy,250,2013-07-12 02:53:00
9:53 PM,62.1,53.1,72,29.86,10.0,NW,4.6,-,0.01,,Mostly Cloudy,320,2013-07-12 03:53:00
10:53 PM,60.1,53.1,78,29.89,10.0,SW,5.8,-,N/A,,Scattered Clouds,220,2013-07-12 04:53:00
11:53 PM,59.0,53.1,81,29.87,10.0,South,4.6,-,N/A,,Mostly Cloudy,190,2013-07-12 05:53:00